Погода в Койнасе

Погода в Койнасе : погода сейчас, прогноз погоды и архив. Всё, что Вы хотите узнать о погоде в Койнасе!

Поиск расширенной информации на нашем сайте:

Другие новости

Новости СМИ2

Главная страница сайта

Новости сайта

03.07.2017

Напоминаем, что на нашем специализированном сайте Метеоцентр.Азия вы можете получить высокодетализированные автоматические прогнозы погоды по пунктам России, СНГ и мира в авиационном формате (включающие направление и скорость ветра, видимость, явления погоды, количество и форму облачности, нижнюю и верхнюю границу облачности).


Погода в Койнасе - сегодня

Время (UTC), дата Ветер
(°,м/с) 
Видим.   Явления Облачность Т
(°С)
Тd
(°С)
f(%) Тe
(°С)
Pmin
(гПа)
dP
(гПа)
Po
(мм)
O2
(г/м3)
Тmin Tmax R s Состояние
почвы
03 19.07.18 350 (С) 50000 м    ясно 
+16 +11.5 75 +20  1022.7  0.2  761  288  +10.2        сухая 
06 19.07.18 330 (СЗ) 50000 м    ясно 
+21.4 +11.9 55 +25  1022.3  -0.3  761  282           
09 19.07.18 060 (СВ) 50000 м    1/1 1000 м 
[Cu hum]
+26.2 +11.5 40 +29  1021.4  -0.7  761  278           
12 19.07.18 050 (СВ) 50000 м    3/3 1000 м 
[Cu hum]
+27.2 +11.1 37 +30  1020.8  -0.6  760  277           
18 19.07.18 070 (В) 50000 м    ясно 
+22 +11.9 53 +25  1021.4  0.7  760  281           
21 19.07.18 тихо ()   50000 м    ясно 
+15.9 +11.7 76 +19  1022.6  761  288           
00 20.07.18 тихо ()   50000 м    ясно 
+12.3 +10.4 88 +14  1023.6  762  292           
06 20.07.18 090 (В) 50000 м    ясно 
+24.4 +12.7 48 +29  1023.5  -0.4  762  279           
09 20.07.18 110 (В) 50000 м    4/4 1000 м 
[Cu hum]
+27 +11.4 38 +30  1022.7  -0.7  761  277           
12 20.07.18 110 (В) 50000 м    3/1 1000 м верхняя 
[Cu hum|Ci fib]
+27.7 +10.3 34 +29  1021.8  -0.8  761  277           
18 20.07.18 тихо ()   40000 м    1/0 верхняя 
[Ci fib]
+20.1 +14.5 70 +28  1021.2  0.1  760  282           
21 20.07.18 250 (З) 50000 м    1/0 верхняя 
[Ci fib]
+14.2 +11.7 85 +18  1022.3  0.9  761  289           
00 21.07.18 тихо ()   50000 м    ясно 
+12 +10.4 90 +13  1023.2  0.8  761  292           
06 21.07.18 120 (ЮВ) 50000 м    ясно 
+24.2 +12.1 47 +28  1021.9  -0.8  761  279           
09 21.07.18 140 (ЮВ) 50000 м    8/8 1000 м 
[Cu hum]
+27.5 +11.1 36 +30  1020.6  -1.2  760  276           
12 21.07.18 150 (ЮВ) 50000 м    6/6 1000 м 
[Cu med, cong]
+28.4 +11 34 +31  1019.6  -1  759  275           
18 21.07.18 180 (Ю) 50000 м    ясно 
+22.1 +11.1 50 +24  1019.4  0.5  759  281           
21 21.07.18 220 (ЮЗ) 50000 м    ясно 
+13.8 +10.6 81 +17  1020.5  0.9  760  289           
00 22.07.18 200 (Ю) 50000 м    ясно 
+10.4 +8.5 88 +12  1021.4  0.8  760  294           
06 22.07.18 150 (ЮВ) 50000 м    ясно 
+25.1 +12.3 45 +29  1020.1  -0.8  759  278           
09 22.07.18 210 (ЮЗ) 50000 м    ясно 
+27.4 +8.8 31 +27  1019.1  -0.9  759  276           
12 22.07.18 180 (Ю) 50000 м    ясно 
+28.7 +8.4 28 +29  1018  -1.1  758  275           
15 22.07.18 190 (Ю) 50000 м    ясно 
+27.9 +8.2 29 +28  1016.9  -1.1  757  275    +29       
18 22.07.18 тихо ()   50000 м    ясно 
+20.3 +12.6 61 +25  1017.5  0.5  758  282           
21 22.07.18 150 (ЮВ) 50000 м    ясно 
+13.9 +10.9 82 +17  1018.5  0.7  758  289           
Время (UTC), дата Ветер
(°,м/с) 
Видим.   Явления Облачность Т
(°С)
Тd
(°С)
f(%) Тe
(°С)
Pmin
(гПа)
dP
(гПа)
Po
(мм)
O2
(г/м3)
Тmin Tmax R s Состояние
почвы

Для получения пояснительной информации подведите курсор к названию столбца.

ПОГОДА в Койнасе - архив

Всё, что Вы хотите узнать о погоде в Койнасе - удобно и подробно!

Выберите нужную дату (начиная с 1 января 2015* года) и нажмите кнопку "Найти".
Будут отображены архивные сводки погоды по пункту Койнас, начиная с указанной даты.


Отображать данные в формате CSV (для использования в таблицах Excel)


Внимание! Наш архив погоды предназначен исключительно для личного некоммерческого использования в познавательных целях. Если Вам необходимы официальные справки о состоянии погоды (для производственных, юридических, коммерческих и т.п. целей), обращайтесь в органы Росгидромета.

*Примечание: данная дата относится к архиву по метеостанциям СССР (Россия, СНГ, Балтия).
Архив по метеостанциям Зарубежной Европы и Азии (кроме Китая) хранится 10 дней, по другим регионам земного шара (Китай, Африка, Америка, Австралия, Океания) - 1 день.

Койнас - район местоположения метеостанции


Название, широта, долгота, высота метеостанции:
Койнас 64.8°ш. 47.6°д. 64 м над ур. моря [Российская Федерация]

Дополнительная информация

В oтличие oт бoльшинства пoгoдных сайтoв мы публикуем пoдрoбную метеoинфoрмацию в детальнoм прoфессиoнальнoм фoрмате.

Характеристики температуры и влажнoсти вoздуха измеряются на высoте 2 м в тени вдали oт зданий и деревьев.
Скoрoсть ветра измеряется на высoте 10 м (на урoвне рoста челoвека скoрoсть ветра ниже в 1.5-2 раза). Если метеoстанция нахoдится в гoрoде или в лесу, тo скoрoсть ветра занижена на 2-4 м/с пo сравнению с oткрытым местoм. Скoрoсть ветра над акватoриями крупных рек и oзёр, а также на вершинах хoлмoв на 2-5 м/с выше, чем в oбычных услoвиях.
Атмoсфернoе давление в разных тoчках местнoсти мoжет значительнo oтличаться oт давления на метеoстанции, в зависимoсти oт услoвий рельефа (при пoдъёме на 10 м давление пoнижается примернo на 1 мм рт.ст.).